Location: Newark
(54.6833°N, 25.2833°E)
Time: 23:15:08
(UTC+00:00)

Altair - Pass Details

Date: 15 November 2019
Orbit: 1502 x 1682 km, 47.2° (Epoch: 05 December)

Event Time Altitude Azimuth Distance (km) Brightness Sun altitude
Rises 05:44:52 0° 264° (W) 4,640 9.5 -1.3°
Reaches altitude 10° 05:47:56 10° 260° (W) 3,667 9.1 -0.9°
Maximum altitude 05:56:48 54° 187° (S) 1,807 8.2 0.2°
Drops below altitude 10° 06:05:56 10° 114° (ESE) 3,770 11.6 1.2°
Sets 06:09:08 0° 110° (ESE) 4,779 12.0 1.6°
